• Join FlightAware (Why Join?)
  • Login
  • US Flag GB Flag 
08:50 EDT


 

Airport Tracker/Info


-or-


 

Live Flight TrackerFlight Track Log ✈ JBU51 ✈ 09-May-2013 ✈ KBTV - KJFK

Flight Track Log - Related Links

Times and Time Zones

All times are in EDT time to prevent confusion due to time zone crossing. See the JBU51 flight status page for this flight to view local times or setup timezone preferences in your user account.

Time Position Orientation Groundspeed Altitude Reporting Facility
EDT Latitude Longitude Course Direction KTS MPH feet Rate Location/Type
11:36 44.3133 -73.1364 196° South 266 306 6,500  Level Boston Center
11:37 44.1567 -73.2663 195° South  Level FlightAware Approximate
11:37 44.2550 -73.1619 197° South 283 326 9,600  Level Boston Center
11:38 44.0787 -73.2955 195° South  Level FlightAware Approximate
11:38 44.1775 -73.1956 197° South 283 326 12,600  Level Boston Center
11:39 44.0003 -73.3222 194° South  Level FlightAware Approximate
11:39 44.1003 -73.2178 192° South 289 333 14,900  Level Boston Center
11:40 43.9217 -73.3483 193° South  Level FlightAware Approximate
11:40 44.0189 -73.2397 191° South 294 338 16,000  Level Boston Center
11:41 43.8441 -73.3792 196° South  Level FlightAware Approximate
11:41 43.9375 -73.2589 190° South 299 344 16,400  Level Boston Center
11:42 43.7666 -73.4102 196° South  Level FlightAware Approximate
11:42 43.8372 -73.2864 191° South 340 391 18,200  Level Boston Center
11:43 43.7372 -73.3136 191° South 366 421 20,200 2,040 Climbing Boston Center
11:44 43.6328 -73.3381 190° South 374 430 22,300 1,980 Climbing Boston Center
11:45 43.5283 -73.3678 192° South 379 436 24,200 1,680 Climbing Boston Center
11:46 43.4197 -73.3947 190° South 392 451 25,700 900 Climbing Boston Center
11:47 43.3050 -73.4186 189° South 409 471 26,000 120 Climbing Boston Center
11:48 43.1878 -73.4511 191° South 404 465 26,000  Level Boston Center
11:49 43.0897 -73.4750 190° South 399 459 26,000  Level Boston Center
11:50 42.9872 -73.5017 191° South 392 451 26,000  Level Boston Center
11:51 42.9100 -73.5231 191° South 385 443 26,000  Level Boston Center
11:52 42.7908 -73.5547 191° South 373 429 26,000  Level Boston Center
11:53 42.6886 -73.5783 190° South 373 429 26,000  Level Boston Center
11:54 42.5758 -73.6072 191° South 378 435 26,000  Level Boston Center
11:55 42.4753 -73.6336 191° South 378 435 26,000  Level Boston Center
11:56 42.3731 -73.6542 188° South 373 429 26,000  Level Boston Center
11:57 42.2750 -73.6747 189° South 373 429 26,000  Level Boston Center
11:58 42.1789 -73.6953 189° South 368 423 26,000  Level Boston Center
11:59 42.0783 -73.7436 200° South 373 429 26,000  Level Boston Center
12:00 41.9797 -73.7861 198° South 373 429 26,000  Level Boston Center
12:01 41.8792 -73.8369 201° Southwest 383 441 26,000  Level Boston Center
12:02 41.7847 -73.8767 197° South 383 441 26,000 -900 Level Boston Center
12:05 41.5531 -73.9867 200° South 386 444 23,000 -1,500 Descending New York Center
12:06 41.4581 -74.0319 200° South 375 432 21,000 -1,560 Descending New York Center
12:07 41.3650 -74.0856 203° Southwest 367 422 20,000 -540 Descending New York Center
12:08 41.2822 -74.1450 208° Southwest 357 411 20,000  Level New York Center
12:09 41.1864 -74.1456 180° South 346 398 20,000  Level New York Center
12:10 41.0886 -74.1408 178° South 341 392 20,000 -540 Level New York Center
12:11 40.9783 -74.1381 179° South 346 398 19,000 -660 Descending New York Center
12:11 40.9333 -74.1333 175° South 329 379 19,000 -420 Level New York TRACON
12:12 40.8667 -74.0333 131° Southeast 328 377 18,400 -1,200 Descending New York TRACON
12:13 40.8167 -73.9500 128° Southeast 318 366 16,700 -1,800 Descending New York TRACON
12:14 40.7833 -73.8500 114° Southeast 313 360 15,000 -1,740 Descending New York TRACON
12:15 40.7167 -73.7667 137° Southeast 305 351 13,300 -1,860 Descending New York TRACON
12:16 40.6500 -73.7167 150° Southeast 365 420 11,300 -1,980 Descending New York TRACON
12:17 40.5667 -73.6833 163° South 268 308 9,400 -1,620 Descending New York TRACON
12:18 40.5000 -73.6667 169° South 268 308 8,100 -1,320 Descending New York TRACON
12:19 40.4333 -73.6833 191° South 264 304 6,900 -1,560 Descending New York TRACON
12:20 40.3500 -73.7000 189° South 260 299 5,000 -1,440 Descending New York TRACON
12:21 40.3167 -73.7500 229° Southwest 225 259 4,200 -960 Descending New York TRACON
12:22 40.3000 -73.8167 252° West 205 236 3,200 -600 Descending New York TRACON
12:23 40.3000 -73.8833 270° West 209 241 3,000 -120 Descending New York TRACON
12:24 40.3369 -73.8994 342° North 174 200 3,000  Level New York Center